Weather History for KSLG - February, 2013

Change the Weather History Date:

Monday, February 25, 2013

  Actual Average Record
Temperature  
Mean Temperature 40 °F -  
Max Temperature 42 °F 48 °F 71 °F (1999)
Min Temperature 37 °F 31 °F 12 °F (2003)
Degree Days  
Heating Degree Days 26    
Moisture  
Dew Point 30 °F    
Average Humidity 71    
Maximum Humidity 81    
Minimum Humidity 57    
Precipitation  
Precipitation 0.37 in - - ()
Sea Level Pressure  
Sea Level Pressure 29.63 in    
Wind  
Wind Speed 10 mph (ENE)    
Max Wind Speed 20 mph    
Max Gust Speed 31 mph    
Visibility 10 miles    
Events Thunderstorm    
Averages and records for this station are not official NWS values.
T = Trace of Precipitation, MM = Missing Value Source: NWS Daily Summary

Daily Weather History Graph

Daily Weather History Graph

Search for Another Location

Airport or City:

Trip Planner

Search our weather history database for the weather conditions in past years. The results will help you decide how hot, cold, wet, or windy it might be!

Date:

Astronomy

Feb. 25, 2013 Rise Set
Actual Time 6:53 AM CST 6:09 PM CST
Civil Twilight 6:27 AM CST 6:35 PM CST
Nautical Twilight 5:57 AM CST 7:05 PM CST
Astronomical Twilight 5:27 AM CST 7:34 PM CST
Moon 6:21 PM CST (2/25) 6:24 AM CST (2/25)
Length of Visible Light 12h 07m
Length of Day
11h 16m
Full, 100% of the Moon is Illuminated
Feb 25
Full
Feb 25
Full
Mar 4
Last Quarter
Mar 11
New
Mar 19
First Quarter

Hourly Weather History & Observations

Time (CST) Temp. Windchill Dew Point Humidity Pressure Visibility Wind Dir Wind Speed Gust Speed Precip Events Conditions
12:15 AM 39.2 °F 34.2 °F 28.4 °F 65% 29.86 in 10.0 mi East 6.9 mph - N/A   Unknown
12:35 AM 39.2 °F 35.0 °F 28.4 °F 65% 29.86 in 10.0 mi ENE 5.8 mph - N/A   Unknown
12:55 AM 39.2 °F 35.0 °F 28.4 °F 65% 29.86 in 10.0 mi ENE 5.8 mph - N/A   Unknown
1:15 AM 37.4 °F 33.8 °F 26.6 °F 65% 29.87 in 10.0 mi NE 4.6 mph - N/A   Unknown
1:35 AM 39.2 °F 34.2 °F 28.4 °F 65% 29.88 in 10.0 mi ENE 6.9 mph - N/A   Unknown
1:55 AM 37.4 °F 32.1 °F 28.4 °F 70% 29.87 in 10.0 mi ENE 6.9 mph - N/A   Unknown
2:15 AM 37.4 °F 32.1 °F 26.6 °F 65% 29.85 in 10.0 mi East 6.9 mph - N/A   Unknown
2:35 AM 37.4 °F 32.1 °F 28.4 °F 70% 29.84 in 10.0 mi ENE 6.9 mph - N/A   Unknown
2:55 AM 37.4 °F 31.4 °F 28.4 °F 70% 29.83 in 10.0 mi ENE 8.1 mph - N/A   Unknown
3:15 AM 39.2 °F 33.6 °F 28.4 °F 65% 29.83 in 10.0 mi ENE 8.1 mph - N/A   Unknown
3:35 AM 39.2 °F 33.0 °F 28.4 °F 65% 29.81 in 10.0 mi East 9.2 mph - N/A   Unknown
3:55 AM 39.2 °F 33.0 °F 28.4 °F 65% 29.81 in 10.0 mi East 9.2 mph - N/A   Unknown
4:15 AM 39.2 °F 32.5 °F 28.4 °F 65% 29.80 in 10.0 mi East 10.4 mph - N/A   Unknown
4:35 AM 39.2 °F 31.6 °F 28.4 °F 65% 29.79 in 10.0 mi East 12.7 mph 17.3 mph N/A   Unknown
4:55 AM 39.2 °F 33.0 °F 28.4 °F 65% 29.80 in 10.0 mi East 9.2 mph 17.3 mph N/A   Unknown
5:15 AM 39.2 °F 33.0 °F 28.4 °F 65% 29.80 in 10.0 mi East 9.2 mph 16.1 mph N/A   Unknown
5:35 AM 39.2 °F 32.5 °F 28.4 °F 65% 29.79 in 10.0 mi East 10.4 mph 17.3 mph N/A   Unknown
5:55 AM 39.2 °F 32.5 °F 28.4 °F 65% 29.77 in 10.0 mi East 10.4 mph 19.6 mph N/A   Unknown
6:15 AM 39.2 °F 31.6 °F 26.6 °F 61% 29.75 in 10.0 mi East 12.7 mph 20.7 mph N/A   Unknown
6:35 AM 39.2 °F 30.8 °F 26.6 °F 61% 29.75 in 10.0 mi East 15.0 mph 19.6 mph N/A   Unknown
6:55 AM 39.2 °F 31.6 °F 26.6 °F 61% 29.75 in 10.0 mi East 12.7 mph 20.7 mph N/A   Unknown
7:15 AM 39.2 °F 30.5 °F 26.6 °F 61% 29.74 in 10.0 mi East 16.1 mph 19.6 mph N/A   Unknown
7:35 AM 39.2 °F 31.6 °F 26.6 °F 61% 29.71 in 10.0 mi East 12.7 mph 24.2 mph N/A   Unknown
7:55 AM 39.2 °F 31.2 °F 26.6 °F 61% 29.70 in 10.0 mi East 13.8 mph 25.3 mph N/A   Unknown
8:15 AM 39.2 °F 30.2 °F 26.6 °F 61% 29.70 in 10.0 mi East 17.3 mph 25.3 mph N/A   Unknown
8:35 AM 41.0 °F 33.9 °F 26.6 °F 57% 29.72 in 10.0 mi East 12.7 mph 19.6 mph N/A   Unknown
8:55 AM 41.0 °F 34.7 °F 26.6 °F 57% 29.75 in 10.0 mi SE 10.4 mph 20.7 mph N/A   Unknown
9:15 AM 41.0 °F 34.3 °F 26.6 °F 57% 29.72 in 10.0 mi East 11.5 mph 18.4 mph N/A   Unknown
9:35 AM 39.2 °F 30.2 °F 28.4 °F 65% 29.66 in 7.0 mi ENE 17.3 mph 25.3 mph 0.03 in   Unknown
9:55 AM 39.2 °F 35.0 °F 28.4 °F 65% 29.76 in 10.0 mi South 5.8 mph 17.3 mph 0.03 in   Unknown
10:15 AM 39.2 °F 33.0 °F 28.4 °F 65% 29.70 in 10.0 mi ENE 9.2 mph - N/A   Unknown
10:35 AM 39.2 °F 30.2 °F 28.4 °F 65% 29.64 in 10.0 mi ENE 17.3 mph 20.7 mph 0.01 in   Unknown
10:55 AM 39.2 °F 30.2 °F 28.4 °F 65% 29.63 in 10.0 mi East 17.3 mph 24.2 mph 0.01 in   Unknown
11:15 AM 41.0 °F 31.9 °F 28.4 °F 61% 29.60 in 10.0 mi East 19.6 mph 28.8 mph N/A   Unknown
11:35 AM 39.2 °F 29.8 °F 28.4 °F 65% 29.55 in 10.0 mi East 18.4 mph 29.9 mph N/A Thunderstorm Unknown
11:55 AM 39.2 °F 30.5 °F 28.4 °F 65% 29.55 in 10.0 mi ENE 16.1 mph 24.2 mph N/A   Unknown
12:15 PM 41.0 °F 34.3 °F 28.4 °F 61% 29.59 in 10.0 mi NE 11.5 mph 17.3 mph N/A   Unknown
12:35 PM 41.0 °F 34.3 °F 28.4 °F 61% 29.58 in 10.0 mi ENE 11.5 mph - N/A Thunderstorm Thunderstorm
12:55 PM 39.2 °F 35.9 °F 30.2 °F 70% 29.63 in 10.0 mi North 4.6 mph - 0.01 in Thunderstorm Thunderstorm
1:15 PM 37.4 °F 28.9 °F 28.4 °F 70% 29.57 in 10.0 mi NE 13.8 mph 19.6 mph 0.07 in Thunderstorm Unknown
1:35 PM 39.2 °F 33.6 °F 30.2 °F 70% 29.59 in 10.0 mi NE 8.1 mph - 0.11 in   Unknown
1:55 PM 41.0 °F 34.3 °F 33.8 °F 76% 29.57 in 10.0 mi NE 11.5 mph 17.3 mph 0.12 in   Unknown
2:15 PM 42.8 °F 35.8 °F 33.8 °F 70% 29.55 in 10.0 mi NE 13.8 mph 19.6 mph N/A   Unknown
2:35 PM 41.0 °F 33.9 °F 33.8 °F 76% 29.53 in 8.0 mi ENE 12.7 mph 19.6 mph 0.01 in   Unknown
2:55 PM 41.0 °F 34.7 °F 33.8 °F 76% 29.55 in 10.0 mi NE 10.4 mph - 0.03 in   Unknown
3:15 PM 41.0 °F 33.9 °F 33.8 °F 76% 29.53 in 9.0 mi NE 12.7 mph 18.4 mph 0.01 in   Unknown
3:35 PM 39.2 °F 30.8 °F 33.8 °F 81% 29.51 in 10.0 mi NE 15.0 mph 18.4 mph 0.02 in   Unknown
3:55 PM 39.2 °F 33.0 °F 33.8 °F 81% 29.52 in 10.0 mi ENE 9.2 mph 17.3 mph 0.02 in   Unknown
4:15 PM 39.2 °F 33.6 °F 33.8 °F 81% 29.53 in 10.0 mi ENE 8.1 mph - 0.03 in   Unknown
4:35 PM 39.2 °F 31.2 °F 33.8 °F 81% 29.49 in 5.0 mi ENE 13.8 mph 20.7 mph 0.05 in   Unknown
4:55 PM 39.2 °F 31.6 °F 33.8 °F 81% 29.46 in 8.0 mi ENE 12.7 mph 20.7 mph 0.05 in   Unknown
5:15 PM 41.0 °F 33.5 °F 35.6 °F 81% 29.46 in 10.0 mi ENE 13.8 mph 19.6 mph N/A   Unknown
5:35 PM 41.0 °F 33.9 °F 33.8 °F 76% 29.47 in 10.0 mi East 12.7 mph 21.9 mph N/A   Unknown
5:55 PM 41.0 °F 32.5 °F 33.8 °F 76% 29.48 in 10.0 mi East 17.3 mph 31.1 mph N/A   Unknown
6:15 PM 41.0 °F 32.5 °F 33.8 °F 76% 29.49 in 10.0 mi East 17.3 mph 28.8 mph N/A   Unknown
6:35 PM 39.2 °F 30.5 °F 33.8 °F 81% 29.48 in 10.0 mi East 16.1 mph 27.6 mph N/A   Unknown
6:55 PM 39.2 °F 31.2 °F 33.8 °F 81% 29.48 in 10.0 mi East 13.8 mph 24.2 mph N/A   Unknown
7:15 PM 39.2 °F 30.5 °F 33.8 °F 81% 29.47 in 10.0 mi East 16.1 mph 23.0 mph N/A   Unknown
7:35 PM 39.2 °F 30.2 °F 33.8 °F 81% 29.46 in 10.0 mi East 17.3 mph 27.6 mph N/A   Unknown
8:15 PM 39.2 °F 30.8 °F 33.8 °F 81% 29.46 in 10.0 mi East 15.0 mph 21.9 mph N/A   Unknown
8:35 PM 39.2 °F 31.2 °F 33.8 °F 81% 29.46 in 10.0 mi East 13.8 mph 21.9 mph N/A   Unknown
8:55 PM 39.2 °F 32.5 °F 33.8 °F 81% 29.46 in 6.0 mi East 10.4 mph 16.1 mph 0.03 in   Unknown
9:15 PM 39.2 °F 32.5 °F 33.8 °F 81% 29.45 in 8.0 mi East 10.4 mph - 0.04 in   Unknown
9:35 PM 39.2 °F 33.0 °F 33.8 °F 81% 29.46 in 10.0 mi East 9.2 mph - 0.06 in   Unknown
9:55 PM 39.2 °F 33.0 °F 33.8 °F 81% 29.45 in 10.0 mi East 9.2 mph - 0.06 in   Unknown
10:15 PM 39.2 °F 32.5 °F 33.8 °F 81% 29.45 in 10.0 mi East 10.4 mph - 0.01 in   Unknown
10:35 PM 37.4 °F 30.8 °F 32.0 °F 81% 29.45 in 10.0 mi ENE 9.2 mph 17.3 mph 0.01 in   Unknown
10:55 PM 37.4 °F 30.3 °F 32.0 °F 81% 29.44 in 10.0 mi ENE 10.4 mph - 0.01 in   Unknown
11:15 PM 37.4 °F 30.3 °F 32.0 °F 81% 29.43 in 10.0 mi ENE 10.4 mph 17.3 mph N/A   Unknown
11:35 PM 37.4 °F 31.4 °F 32.0 °F 81% 29.43 in 10.0 mi NE 8.1 mph - N/A   Unknown
11:55 PM 37.4 °F 31.4 °F 30.2 °F 75% 29.43 in 10.0 mi ENE 8.1 mph - N/A   Unknown